WA6MHA-11 Weather Reports


time (UTC)temp
C
wind
direction
speed
KPH
gust
KPH
rain 1hr
cm
rain 24hr
cm
rain mn
cm
humidity
%
barometer
mb
20260504224313 23 221 9.7 17.7 0.00 0.00 0.00 29 1015.6
20260504223506 23 220 14.5 25.7 0.00 0.00 0.00 29 1015.6
20260504223105 23 255 12.9 17.7 0.00 0.00 0.00 29 1015.6
20260504222704 23 279 12.9 37.0 0.00 0.00 0.00 30 1015.5
20260504221907 22 270 4.8 20.9 0.00 0.00 0.00 30 1015.7
20260504221059 23 200 22.5 22.5 0.00 0.00 0.00 30 1015.6
20260504220704 24 202 11.3 16.1 0.00 0.00 0.00 29 1015.7
20260504220301 24 173 11.3 14.5 0.00 0.00 0.00 30 1015.7
20260504215901 24 190 4.8 20.9 0.00 0.00 0.00 30 1015.8
20260504215458 23 202 14.5 24.1 0.00 0.00 0.00 30 1015.9
20260504214251 22 180 4.8 19.3 0.00 0.00 0.00 30 1016.0
20260504213454 23 121 9.7 14.5 0.00 0.00 0.00 30 1016.1
20260504213051 23 267 9.7 20.9 0.00 0.00 0.00 30 1016.1
20260504212250 22 90 8.0 17.7 0.00 0.00 0.00 30 1016.1
20260504211842 22 103 6.4 16.1 0.00 0.00 0.00 30 1016.1
20260504211441 22 216 12.9 17.7 0.00 0.00 0.00 31 1016.0
20260504211040 22 187 4.8 12.9 0.00 0.00 0.00 31 1016.2
20260504210638 22 202 8.0 17.7 0.00 0.00 0.00 30 1016.2
20260504210237 23 225 11.3 14.5 0.00 0.00 0.00 31 1016.0
20260504205835 23 197 12.9 14.5 0.00 0.00 0.00 32 1016.0
20260504205446 22 199 8.0 16.1 0.00 0.00 0.00 31 1016.0
20260504205037 22 195 12.9 12.9 0.00 0.00 0.00 32 1016.0
20260504204634 21 221 3.2 16.1 0.00 0.00 0.00 31 1015.9
20260504204230 22 152 8.0 14.5 0.00 0.00 0.00 31 1016.1
20260504203829 22 163 8.0 9.7 0.00 0.00 0.00 31 1016.0
20260504203428 22 186 12.9 14.5 0.00 0.00 0.00 30 1016.1
20260504202626 22 264 1.6 6.4 0.00 0.00 0.00 31 1016.0
20260504201822 22 294 6.4 12.9 0.00 0.00 0.00 31 1016.0
20260504201421 22 182 3.2 12.9 0.00 0.00 0.00 30 1016.1
20260504200619 23 270 6.4 12.9 0.00 0.00 0.00 31 1016.1
20260504200219 22 186 8.0 8.0 0.00 0.00 0.00 30 1016.1
20260504195817 22 225 1.6 16.1 0.00 0.00 0.00 30 1016.1
20260504195013 23 265 6.4 9.7 0.00 0.00 0.00 31 1016.2
20260504194613 23 119 8.0 9.7 0.00 0.00 0.00 31 1016.1
20260504194212 24 232 4.8 6.4 0.00 0.00 0.00 31 1016.1
20260504193810 23 99 1.6 11.3 0.00 0.00 0.00 31 1016.2
20260504193409 23 220 11.3 11.3 0.00 0.00 0.00 31 1016.2
20260504192606 22 180 3.2 14.5 0.00 0.00 0.00 32 1016.3
20260504191001 22 128 12.9 12.9 0.00 0.00 0.00 32 1016.4
20260504190600 22 296 3.2 6.4 0.00 0.00 0.00 32 1016.4
20260504185757 23 331 3.2 6.4 0.00 0.00 0.00 32 1016.3
20260504185356 22 135 1.6 11.3 0.00 0.00 0.00 33 1016.5
20260504184955 22 166 8.0 8.0 0.00 0.00 0.00 33 1016.6
20260504184555 22 173 1.6 11.3 0.00 0.00 0.00 34 1016.6
20260504184152 22 135 11.3 11.3 0.00 0.00 0.00 34 1016.5
20260504183751 -17 166 3.2 9.7 0.00 0.00 0.00
20260504183352 22 182 3.2 9.7 0.00 0.00 0.00 34 1016.6
20260504182948 22 192 3.2 9.7 0.00 0.00 0.00 34 1016.6
20260504182547 22 184 9.7 11.3 0.00 0.00 0.00 34 1016.6
20260504182151 22 175 4.8 11.3 0.00 0.00 0.00 34 1016.7
20260504181748 21 197 3.2 11.3 0.00 0.00 0.00 34 1016.6
20260504181347 21 186 6.4 14.5 0.00 0.00 0.00 34 1016.7
20260504180942 21 175 4.8 9.7 0.00 0.00 0.00 34 1016.7
20260504180140 22 191 4.8 12.9 0.00 0.00 0.00 35 1016.6
20260504175738 22 128 12.9 12.9 0.00 0.00 0.00 35 1016.5
20260504175336 22 185 6.4 8.0 0.00 0.00 0.00 35 1016.5
20260504174938 21 92 1.6 6.4 0.00 0.00 0.00 35 1016.5
20260504174534 21 175 3.2 6.4 0.00 0.00 0.00 35 1016.6
20260504174133 21 92 0.0 8.0 0.00 0.00 0.00 35 1016.5
20260504173731 21 177 1.6 4.8 0.00 0.00 0.00 34 1016.5
20260504173330 20 180 1.6 3.2 0.00 0.00 0.00 34 1016.5
20260504172928 20 135 3.2 4.8 0.00 0.00 0.00 34 1016.5
20260504172529 20 177 1.6 4.8 0.00 0.00 0.00 34 1016.5
20260504172126 21 180 1.6 3.2 0.00 0.00 0.00 33 1016.4
20260504171725 21 168 0.0 6.4 0.00 0.00 0.00 33 1016.5
20260504171324 20 347 1.6 4.8 0.00 0.00 0.00 33 1016.4
20260504170923 20 184 1.6 3.2 0.00 0.00 0.00 33 1016.4
20260504170521 20 186 3.2 3.2 0.00 0.00 0.00 32 1016.4
20260504150845 16 279 6.4 6.4 0.00 0.00 0.00 51 1016.2
20260504150443 15 292 6.4 9.7 0.00 0.00 0.00 1 1016.2
20260504141228 13 263 1.6 3.2 0.00 0.00 0.00 57 1015.9
20260504140828 12 225 0.0 1.6 0.00 0.00 0.00 57 1016.0
20260504130805 12 283 0.0 0.0 0.00 0.00 0.00 55 1015.7
20260504130405 12 270 0.0 0.0 0.00 0.00 0.00 55 1015.7
20260504110327 12 274 0.0 0.0 0.00 0.00 0.00 54 1015.5
20260504081835 13 324 0.0 0.0 0.00 0.00 0.00 53 1016.4
20260504081431 13 270 0.0 0.0 0.00 0.00 0.00 53 1016.6
20260504081030 13 283 0.0 0.0 0.00 0.00 0.00 53 1016.6
20260504080629 13 279 0.0 1.6 0.00 0.00 0.00 53 1016.5
20260504080228 13 85 0.0 0.0 0.00 0.00 0.00 53 1016.3
20260504070210 13 288 1.6 4.8 0.00 0.00 0.00 53 1016.3
20260504070208 13 288 1.6 4.8 0.00 0.00 0.00 53 1016.3
20260504060149 13 274 0.0 1.6 0.00 0.00 0.00 52 1016.1
20260504050531 14 227 1.6 3.2 0.00 0.00 0.00 50 1016.1
20260504050129 14 247 1.6 1.6 0.00 0.00 0.00 50 1016.1
20260504045321 14 262 3.2 4.8 0.00 0.00 0.00 50 1016.0
20260504044119 14 250 1.6 1.6 0.00 0.00 0.00 49 1016.0
20260504041309 15 279 3.2 4.8 0.00 0.00 0.00 48 1015.8
20260504040506 15 240 0.0 3.2 0.00 0.00 0.00 47 1015.6
20260504040107 15 279 1.6 4.8 0.00 0.00 0.00 47 1015.5
20260504035304 15 299 3.2 4.8 0.00 0.00 0.00 47 1015.5
20260504034901 15 283 1.6 0.0 0.00 0.00 0.00 47 1015.5
20260504034058 15 283 4.8 4.8 0.00 0.00 0.00 46 1015.1
20260504033256 15 272 1.6 4.8 0.00 0.00 0.00 46 1015.3
20260504032856 15 288 4.8 6.4 0.00 0.00 0.00 45 1015.2
20260504031654 16 294 3.2 4.8 0.00 0.00 0.00 45 1014.9
20260504031249 16 290 3.2 6.4 0.00 0.00 0.00 45 1014.8
20260504030853 16 274 6.4 6.4 0.00 0.00 0.00 44 1014.9
20260504030447 16 232 3.2 8.0 0.00 0.00 0.00 44 1014.9
20260504024842 16 135 1.6 6.4 0.00 0.00 0.00 43 1014.7
20260504024042 16 90 3.2 4.8 0.00 0.00 0.00 43 1014.7
20260504023237 17 186 3.2 4.8 0.00 0.00 0.00 42 1014.5
20260504022436 17 173 3.2 3.2 0.00 0.00 0.00 41 1014.4
20260504021632 17 173 3.2 4.8 0.00 0.00 0.00 41 1014.4
20260504020434 17 144 1.6 6.4 0.00 0.00 0.00 40 1014.3
20260504020028 17 135 3.2 6.4 0.00 0.00 0.00 40 1014.2
20260504015631 17 177 6.4 6.4 0.00 0.00 0.00 39 1014.3
20260504015629 17 177 6.4 6.4 0.00 0.00 0.00 39 1014.3
20260504014824 17 135 8.0 12.9 0.00 0.00 0.00 39 1014.0
20260504014020 17 135 8.0 12.9 0.00 0.00 0.00 38 1014.1
20260504013622 18 150 6.4 11.3 0.00 0.00 0.00 37 1013.9
20260504013217 18 177 1.6 6.4 0.00 0.00 0.00 37 1014.0
20260504012820 18 187 6.4 6.4 0.00 0.00 0.00 37 1014.0
20260504012414 18 177 6.4 6.4 0.00 0.00 0.00 37 1014.2
20260504011614 18 130 8.0 9.7 0.00 0.00 0.00 36 1014.0
20260504011211 18 139 6.4 12.9 0.00 0.00 0.00 36 1013.9
20260504005605 19 139 8.0 11.3 0.00 0.00 0.00 35 1014.0
20260504005204 19 137 6.4 6.4 0.00 0.00 0.00 35 1013.9
20260504004803 19 162 3.2 9.7 0.00 0.00 0.00 34 1013.9
20260504004402 19 165 4.8 12.9 0.00 0.00 0.00 34 1013.8
20260504004005 19 159 6.4 12.9 0.00 0.00 0.00 34 1013.8
20260504003158 19 130 11.3 11.3 0.00 0.00 0.00 33 1013.8
20260504002757 20 135 11.3 11.3 0.00 0.00 0.00 33 1013.7
20260504002355 20 182 1.6 9.7 0.00 0.00 0.00 33 1013.8
20260504001553 20 135 9.7 9.7 0.00 0.00 0.00 33 1013.8
20260504000757 21 155 8.0 9.7 0.00 0.00 0.00 32 1013.7
20260504000353 21 143 3.2 12.9 0.00 0.00 0.00 32 1013.7
20260503235548 21 135 3.2 8.0 0.00 0.00 0.00 32 1013.7
20260503234346 22 192 1.6 9.7 0.00 0.00 0.00 32 1013.7
20260503233434 21 191 8.0 9.7 0.00 0.00 0.00 32 1013.7
20260503233313 21 191 8.0 9.7 0.00 0.00 0.00 32 1013.7
20260503233140 21 191 8.0 9.7 0.00 0.00 0.00 32 1013.7
20260503232742 21 146 1.6 8.0 0.00 0.00 0.00 33 1013.8
20260503232337 22 135 1.6 9.7 0.00 0.00 0.00 33 1013.8
20260503225929 21 137 12.9 14.5 0.00 0.00 0.00 33 1013.9
20260503225528 21 135 9.7 12.9 0.00 0.00 0.00 33 1014.0
20260503225141 22 139 14.5 16.1 0.00 0.00 0.00 33 1014.0